• In Belarus
  • List of Countries
  • For 7 days
  • Water Temperature
  • Satellite Maps
  • Weather Map
  • Weather Widgets
  • user-avatar
    Login

    Hourly Weather Porubai

    Today, 17 June, Monday

    Time Temperature Precipitation Wind Pressure Humidity
    00:00 +19°C° 0 mm 2 mps 752 mmHg 90%
    01:00 +19°C° 0 mm 2 mps 752 mmHg 91%
    02:00 +19°C° 0 mm 2 mps 753 mmHg 93%
    03:00 +19°C° 0 mm 2 mps 753 mmHg 92%
    04:00 +19°C° 0 mm 2 mps 753 mmHg 92%
    05:00 +19°C° 0 mm 2 mps 753 mmHg 92%
    06:00 +20°C° 0 mm 2 mps 753 mmHg 84%
    07:00 +23°C° 0 mm 2 mps 753 mmHg 76%
    08:00 +24°C° 0 mm 2 mps 753 mmHg 68%
    09:00 +25°C° 0 mm 2 mps 754 mmHg 62%
    10:00 +26°C° 0 mm 2 mps 754 mmHg 56%
    11:00 +27°C° 0 mm 2 mps 754 mmHg 49%
    12:00 +28°C° 0 mm 2 mps 753 mmHg 47%
    13:00 +28°C° 0 mm 2 mps 753 mmHg 45%
    14:00 +29°C° 0 mm 2 mps 753 mmHg 43%
    15:00 +29°C° 0 mm 2 mps 753 mmHg 43%
    16:00 +29°C° 0 mm 2 mps 753 mmHg 44%
    17:00 +29°C° 0 mm 2 mps 753 mmHg 45%
    18:00 +27°C° 0 mm 2 mps 753 mmHg 50%
    19:00 +25°C° 0 mm 1 mps 753 mmHg 56%
    20:00 +23°C° 0 mm 1 mps 753 mmHg 61%
    21:00 +23°C° 0 mm 1 mps 753 mmHg 62%
    22:00 +22°C° 0 mm 1 mps 753 mmHg 64%
    23:00 +21°C° 0 mm 1 mps 753 mmHg 66%

    Tomorrow, 18 June, Tuesday

    Time Temperature Precipitation Wind Pressure Humidity
    00:00 +21°C° 0 mm 1 mps 753 mmHg 67%
    01:00 +21°C° 0 mm 1 mps 753 mmHg 68%
    02:00 +20°C° 0 mm 1 mps 753 mmHg 69%
    03:00 +21°C° 0 mm 1 mps 753 mmHg 70%
    04:00 +21°C° 0 mm 1 mps 753 mmHg 71%
    05:00 +21°C° 0 mm 1 mps 753 mmHg 72%
    06:00 +23°C° 0 mm 1 mps 753 mmHg 67%
    07:00 +24°C° 0 mm 1 mps 754 mmHg 62%
    08:00 +26°C° 0 mm 1 mps 754 mmHg 57%
    09:00 +27°C° 0 mm 1 mps 754 mmHg 54%
    10:00 +28°C° 0 mm 1 mps 754 mmHg 51%
    11:00 +30°C° 0 mm 1 mps 753 mmHg 48%
    12:00 +30°C° 0 mm 1 mps 753 mmHg 47%
    13:00 +30°C° 0 mm 1 mps 753 mmHg 47%
    14:00 +30°C° 0 mm 2 mps 752 mmHg 47%
    15:00 +30°C° 0 mm 2 mps 752 mmHg 51%
    16:00 +30°C° 0 mm 3 mps 752 mmHg 54%
    17:00 +29°C° 0 mm 3 mps 752 mmHg 58%
    18:00 +27°C° 0.1 mm 3 mps 752 mmHg 67%
    19:00 +26°C° 0.1 mm 3 mps 752 mmHg 76%
    20:00 +24°C° 0.1 mm 3 mps 752 mmHg 86%
    21:00 +22°C° 0 mm 3 mps 752 mmHg 88%
    22:00 +21°C° 0 mm 3 mps 753 mmHg 90%
    23:00 +20°C° 0 mm 3 mps 753 mmHg 92%

    Day after tomorrow, 19 June, Wednesday

    Time Temperature Precipitation Wind Pressure Humidity
    00:00 +19°C° 0 mm 3 mps 753 mmHg 93%
    01:00 +19°C° 0 mm 2 mps 753 mmHg 94%
    02:00 +18°C° 0 mm 2 mps 753 mmHg 95%
    03:00 +19°C° 0 mm 2 mps 753 mmHg 94%
    04:00 +19°C° 0 mm 2 mps 753 mmHg 93%
    05:00 +19°C° 0 mm 2 mps 753 mmHg 92%
    06:00 +20°C° 0 mm 3 mps 753 mmHg 86%
    07:00 +22°C° 0 mm 3 mps 753 mmHg 80%
    08:00 +25°C° 0 mm 3 mps 753 mmHg 73%
    09:00 +26°C° 0.1 mm 3 mps 753 mmHg 69%
    10:00 +27°C° 0.1 mm 4 mps 753 mmHg 65%
    11:00 +28°C° 0.1 mm 4 mps 753 mmHg 60%
    12:00 +29°C° 0.1 mm 4 mps 753 mmHg 59%
    13:00 +29°C° 0.1 mm 5 mps 753 mmHg 58%
    14:00 +29°C° 0.1 mm 5 mps 752 mmHg 56%
    15:00 +29°C° 0.1 mm 5 mps 752 mmHg 58%
    16:00 +29°C° 0.1 mm 5 mps 752 mmHg 60%
    17:00 +28°C° 0.1 mm 5 mps 752 mmHg 62%
    18:00 +27°C° 0 mm 4 mps 752 mmHg 67%
    19:00 +25°C° 0 mm 4 mps 752 mmHg 73%
    20:00 +23°C° 0 mm 4 mps 752 mmHg 78%
    21:00 +22°C° 0 mm 3 mps 753 mmHg 79%
    22:00 +21°C° 0 mm 3 mps 753 mmHg 80%
    23:00 +21°C° 0 mm 3 mps 753 mmHg 82%

    20 June, Thursday

    Time Temperature Precipitation Wind Pressure Humidity
    00:00 +20°C° 0 mm 3 mps 753 mmHg 83%
    01:00 +19°C° 0 mm 3 mps 753 mmHg 84%
    02:00 +19°C° 0 mm 3 mps 753 mmHg 85%
    03:00 +19°C° 0 mm 3 mps 753 mmHg 85%
    04:00 +19°C° 0 mm 3 mps 753 mmHg 85%
    05:00 +19°C° 0 mm 3 mps 753 mmHg 85%
    06:00 +20°C° 0 mm 4 mps 753 mmHg 78%
    07:00 +22°C° 0 mm 4 mps 754 mmHg 72%
    08:00 +25°C° 0 mm 4 mps 754 mmHg 65%
    09:00 +26°C° 0 mm 4 mps 754 mmHg 60%
    10:00 +27°C° 0 mm 5 mps 754 mmHg 56%
    11:00 +28°C° 0 mm 5 mps 754 mmHg 52%
    12:00 +29°C° 0 mm 5 mps 754 mmHg 51%
    13:00 +29°C° 0 mm 5 mps 753 mmHg 51%
    14:00 +29°C° 0 mm 5 mps 753 mmHg 50%
    15:00 +29°C° 0 mm 5 mps 753 mmHg 51%
    16:00 +29°C° 0 mm 4 mps 753 mmHg 52%
    17:00 +29°C° 0 mm 4 mps 753 mmHg 54%
    18:00 +27°C° 0 mm 4 mps 753 mmHg 60%
    19:00 +26°C° 0 mm 4 mps 753 mmHg 67%
    20:00 +24°C° 0 mm 3 mps 754 mmHg 73%
    21:00 +22°C° 0 mm 3 mps 754 mmHg 75%
    22:00 +21°C° 0 mm 3 mps 754 mmHg 76%
    23:00 +21°C° 0 mm 3 mps 754 mmHg 77%

    21 June, Friday

    Time Temperature Precipitation Wind Pressure Humidity
    00:00 +20°C° 0 mm 3 mps 754 mmHg 79%
    01:00 +20°C° 0 mm 3 mps 754 mmHg 81%
    02:00 +19°C° 0 mm 3 mps 754 mmHg 83%
    03:00 +19°C° 0 mm 3 mps 754 mmHg 83%
    04:00 +19°C° 0 mm 3 mps 754 mmHg 83%
    05:00 +19°C° 0 mm 3 mps 754 mmHg 84%
    06:00 +21°C° 0 mm 3 mps 755 mmHg 78%
    07:00 +24°C° 0 mm 3 mps 755 mmHg 72%
    08:00 +26°C° 0 mm 4 mps 755 mmHg 66%
    09:00 +27°C° 0 mm 4 mps 755 mmHg 60%
    10:00 +28°C° 0 mm 4 mps 755 mmHg 55%
    11:00 +30°C° 0 mm 4 mps 755 mmHg 50%
    12:00 +30°C° 0 mm 4 mps 755 mmHg 48%
    13:00 +32°C° 0 mm 4 mps 754 mmHg 45%
    14:00 +31°C° 0 mm 3 mps 754 mmHg 43%
    15:00 +32°C° 0 mm 4 mps 754 mmHg 45%
    16:00 +30°C° 0 mm 4 mps 754 mmHg 48%
    17:00 +30°C° 0 mm 4 mps 753 mmHg 50%
    18:00 +28°C° 0 mm 4 mps 754 mmHg 56%
    19:00 +26°C° 0 mm 3 mps 754 mmHg 62%
    20:00 +25°C° 0 mm 3 mps 754 mmHg 68%
    21:00 +24°C° 0 mm 3 mps 754 mmHg 71%
    22:00 +22°C° 0 mm 3 mps 754 mmHg 74%
    23:00 +21°C° 0 mm 3 mps 754 mmHg 77%

    22 June, Saturday

    Time Temperature Precipitation Wind Pressure Humidity
    00:00 +21°C° 0 mm 3 mps 755 mmHg 77%
    01:00 +20°C° 0 mm 3 mps 755 mmHg 78%
    02:00 +20°C° 0 mm 3 mps 755 mmHg 79%
    03:00 +20°C° 0 mm 3 mps 755 mmHg 79%
    04:00 +20°C° 0 mm 2 mps 755 mmHg 79%
    05:00 +20°C° 0 mm 2 mps 755 mmHg 80%
    06:00 +22°C° 0 mm 3 mps 755 mmHg 73%
    07:00 +25°C° 0 mm 3 mps 755 mmHg 67%
    08:00 +27°C° 0 mm 3 mps 755 mmHg 60%
    09:00 +28°C° 0 mm 4 mps 755 mmHg 55%
    10:00 +29°C° 0 mm 4 mps 755 mmHg 50%
    11:00 +30°C° 0 mm 4 mps 755 mmHg 45%
    12:00 +32°C° 0 mm 4 mps 755 mmHg 44%
    13:00 +32°C° 0 mm 4 mps 754 mmHg 42%
    14:00 +33°C° 0 mm 4 mps 754 mmHg 40%
    15:00 +33°C° 0 mm 4 mps 754 mmHg 42%
    16:00 +31°C° 0 mm 3 mps 753 mmHg 45%
    17:00 +31°C° 0 mm 3 mps 753 mmHg 47%
    18:00 +29°C° 0 mm 3 mps 753 mmHg 52%
    19:00 +27°C° 0 mm 3 mps 754 mmHg 57%
    20:00 +25°C° 0 mm 3 mps 754 mmHg 62%
    21:00 +25°C° 0 mm 3 mps 754 mmHg 65%
    22:00 +24°C° 0 mm 3 mps 754 mmHg 68%
    23:00 +22°C° 0 mm 3 mps 754 mmHg 71%
    Show more